Location: Corralito
(14.1667°N, 87.1833°W)
Time: 07:49:36
(UTC+00:00)

CZ-4 R/B - Pass Details

Date: 07 June 2020
Orbit: 531 x 599 km, 97.8° (Epoch: 08 July)

Event Time Altitude Azimuth Distance (km) Brightness Sun altitude
Rises 00:30:19 0° 165° (SSE) 2,820 4.6 -4.1°
Reaches altitude 10° 00:32:29 10° 164° (SSE) 1,924 3.7 -4.5°
Maximum altitude 00:36:39 78° 79° (ENE) 614 1.5 -5.5°
Drops below altitude 10° 00:40:51 10° 352° (N) 1,930 4.6 -6.4°
Sets 00:43:01 0° 351° (N) 2,830 5.5 -6.8°
